CAPE
0 0 0 0 0 0 0 0 0 0 21 3 0 0 342 253 47 17 46 35 6 0 0 0 0 2 0 0 0 24 177 177 168 270 359 448 124 56 448 499 454 390 375 890
0 0 0 0 0 0 0 0 0 24 0 0 0 0 0 312 168 24 2 1 10 0 0 0 0 0 0 0 0 11 98 179 233 195 220 240 354 338 412 381 247 576 392 524
0 0 0 0 0 0 0 0 0 0 0 0 3 0 0 53 280 144 15 0 0 0 0 0 0 0 0 0 0 38 114 261 194 87 387 554 247 64 254 190 102 313 394 431
0 0 0 0 0 0 0 0 0 0 0 0 0 0 0 0 71 326 161 63 25 0 0 0 0 0 0 0 0 88 233 280 148 32 484 563 306 145 99 86 70 124 323 357
0 0 0 0 0 0 0 0 0 0 0 0 0 0 0 0 1 144 308 211 71 3 0 0 0 0 0 0 0 265 351 297 203 52 243 570 349 50 40 37 52 70 246 365
0 0 0 0 0 0 0 0 0 0 0 0 0 0 0 3 12 25 208 286 147 33 0 0 0 0 0 0 0 423 374 378 233 143 325 291 377 322 508 500 426 144 121 417
0 0 0 0 0 0 0 0 0 0 0 0 0 0 0 0 0 0 179 183 232 68 10 0 0 0 0 0 0 412 365 372 369 359 545 546 360 189 334 280 314 129 211 491
0 0 0 0 0 0 0 0 0 0 0 0 0 0 0 0 24 39 91 191 215 93 54 4 0 0 6 0 0 393 380 344 375 487 457 494 719 471 131 208 396 358 137 316
0 0 0 0 0 0 0 0 0 0 0 0 0 0 0 15 571 335 212 218 212 142 64 112 2 0 0 5 0 137 549 406 379 380 373 377 509 679 649 405 270 569 393 1071
0 0 0 0 0 0 0 0 0 0 0 0 0 0 0 38 548 434 315 216 160 177 149 116 155 70 0 33 1 0 466 584 575 454 299 252 419 449 500 502 582 550 566 570
0 0 0 0 0 0 0 0 0 0 0 0 0 0 0 0 52 585 332 327 242 143 200 177 166 176 19 32 61 1 77 470 560 546 375 251 158 291 371 320 258 286 304 386
0 0 0 0 0 0 0 0 0 0 0 0 0 0 0 0 0 485 495 389 249 171 188 249 219 158 140 92 156 100 47 251 412 523 440 300 128 138 190 236 195 115 269 507
0 0 0 0 0 0 0 0 0 0 0 0 0 0 0 0 0 1 317 326 73 18 156 162 282 258 200 164 281 204 129 79 166 411 435 423 274 197 184 229 141 32 221 492
0 0 0 0 0 0 0 0 0 0 0 0 0 0 0 0 0 0 0 0 0 0 65 157 302 330 277 234 171 317 281 162 134 261 321 242 312 236 278 275 233 141 80 289
0 0 0 0 0 0 0 0 0 0 0 0 0 0 0 0 0 0 0 0 0 0 0 113 224 357 326 299 199 231 337 341 247 322 351 228 137 125 134 137 193 189 259 376
0 0 0 0 0 0 0 0 0 0 0 0 0 0 0 0 12 125 188 332 136 2 1 81 144 299 295 268 226 183 209 473 415 430 445 376 281 261 364 357 320 338 445 585
0 0 0 0 0 0 0 0 0 0 97 26 0 0 0 4 105 316 525 328 162 1 49 68 215 341 294 293 235 171 226 382 484 481 447 425 350 405 576 777 774 729 666 712
0 0 0 0 0 0 0 0 0 0 110 93 66 45 38 0 30 152 429 248 40 0 40 166 318 323 408 354 291 285 353 340 409 430 456 464 475 584 668 834 890 891 811 843
0 0 0 0 0 0 0 0 0 57 57 93 103 362 309 0 0 0 23 0 119 6 0 55 395 379 456 418 382 332 352 500 441 463 557 638 661 745 812 844 926 975 920 951
0 0 0 0 0 0 0 0 0 0 39 41 138 658 783 0 5 0 0 0 0 29 7 0 267 315 379 408 319 331 333 378 680 641 666 746 783 793 924 905 923 1016 1036 1105
0 0 0 0 0 0 0 0 11 72 36 0 152 491 782 536 496 711 0 0 0 0 2 1 220 375 394 293 339 396 388 389 561 776 734 738 823 854 893 1000 1035 1029 1051 1125
0 0 0 0 0 0 1 79 56 6 4 12 223 336 390 362 579 973 0 0 1 11 8 5 153 356 349 308 432 464 527 541 412 543 705 770 799 933 968 983 1011 1125 1215 1221
20 0 0 0 0 0 0 3 3 0 0 121 206 153 164 223 409 760 913 999 897 25 10 23 145 170 141 199 499 539 527 540 507 485 661 803 830 891 1027 1082 1099 1119 1214 1348
0 0 1 1 0 0 0 0 0 0 0 24 64 62 55 109 177 347 367 625 936 1545 1085 64 52 82 158 153 422 576 411 338 523 488 523 623 746 880 994 1104 1167 1291 1392 1454
9 3 0 1 0 0 1 0 1 4 0 1 7 24 19 15 31 67 173 374 751 1283 1567 1969 390 69 223 328 361 326 176 251 478 593 616 540 588 548 945 1060 1189 1366 1468 1522
7 5 3 4 0 14 0 0 0 10 2 0 17 20 2 0 9 38 28 86 489 639 759 1161 1556 1168 525 536 530 469 225 225 526 594 606 695 828 851 821 1116 1389 0 133 797
CIN
0 0 0 0 0 0 0 0 0 0 -126 -86 0 0 -250 -354 -394 -385 -339 -330 -290 0 0 0 -1 -265 0 0 0 -214 -143 -184 -217 -171 -128 -142 -223 -261 -194 -191 -173 -221 -227 -153
0 0 0 0 0 0 0 0 0 -155 -8 0 0 0 0 -350 -415 -473 -425 -102 -374 0 0 0 0 0 0 0 0 -266 -214 -225 -223 -197 -205 -185 -172 -204 -217 -234 -257 -204 -221 -232
0 0 0 0 0 0 0 0 0 0 0 0 -216 0 0 -227 -309 -363 -444 0 0 0 0 0 0 0 0 0 0 -242 -246 -212 -256 -329 -187 -179 -260 -376 -259 -282 -316 -273 -247 -241
0 0 0 0 0 0 0 0 0 0 0 0 0 0 0 0 -368 -386 -398 -416 -407 0 0 0 0 0 0 0 0 -241 -204 -209 -268 -333 -171 -150 -192 -250 -347 -349 -385 -321 -269 -266
0 0 0 0 0 0 0 0 0 0 0 0 0 0 0 0 -344 -375 -390 -411 -418 -84 0 0 0 0 0 0 0 -198 -187 -199 -237 -436 -259 -176 -207 -349 -449 -447 -415 -381 -330 -300
0 0 0 0 0 0 0 0 0 0 0 0 0 0 0 -260 -306 -345 -388 -422 -441 -427 0 0 0 0 0 0 0 -165 -180 -183 -248 -336 -259 -245 -211 -243 -254 -286 -317 -368 -412 -319
0 0 0 0 0 0 0 0 0 0 0 0 0 0 0 0 0 0 -442 -449 -428 -451 -391 0 0 0 0 0 0 -198 -193 -193 -206 -254 -225 -232 -248 -320 -287 -322 -348 -411 -365 -316
0 0 0 0 0 0 0 0 0 0 0 0 0 0 0 0 -402 -358 -426 -412 -424 -434 -451 -247 0 0 -408 0 0 -223 -220 -205 -221 -218 -263 -280 -219 -271 -421 -376 -358 -361 -468 -384
0 0 0 0 0 0 0 0 0 0 0 0 0 0 0 -112 -233 -341 -410 -408 -433 -400 -424 -405 -62 -4 0 -270 0 -382 -222 -215 -234 -253 -298 -334 -291 -270 -318 -380 -424 -367 -423 -257
0 0 0 0 0 0 0 0 0 0 0 0 0 0 0 -105 -140 -371 -404 -384 -369 -400 -407 -419 -396 -403 0 -408 -52 0 -264 -224 -236 -249 -317 -381 -347 -359 -365 -391 -384 -405 -397 -381
0 0 0 0 0 0 0 0 0 0 0 0 0 0 0 0 -205 -307 -379 -406 -369 -390 -448 -471 -443 -440 -397 -482 -438 -398 -472 -284 -248 -244 -305 -384 -478 -435 -411 -452 -494 -495 -493 -468
0 0 0 0 0 0 0 0 0 0 0 0 0 0 0 0 -12 -344 -323 -377 -428 -434 -481 -503 -483 -456 -476 -523 -466 -504 -542 -426 -369 -298 -310 -403 -529 -513 -487 -502 -548 -610 -540 -470
0 0 0 0 0 0 0 0 0 0 0 0 0 0 0 0 0 -316 -381 -405 -404 -553 -449 -475 -468 -504 -525 -523 -497 -508 -540 -549 -518 -402 -361 -370 -477 -515 -498 -498 -553 -671 -614 -513
0 0 0 0 0 0 0 0 0 0 0 0 0 0 0 0 0 0 0 0 0 0 -465 -485 -531 -542 -539 -535 -617 -520 -503 -535 -561 -505 -475 -498 -471 -519 -500 -519 -543 -634 -697 -599
0 0 0 0 0 0 0 0 0 0 0 0 0 0 0 0 0 0 0 0 0 0 0 -476 -589 -594 -561 -555 -597 -619 -519 -510 -537 -510 -498 -541 -584 -590 -586 -592 -578 -613 -645 -609
0 0 0 0 0 0 0 0 0 0 0 0 0 0 0 0 -269 -466 -483 -427 -399 -54 -78 -480 -530 -592 -575 -535 -574 -656 -635 -536 -539 -507 -501 -492 -542 -555 -524 -535 -560 -597 -615 -586
0 0 0 0 0 0 0 0 0 0 -214 -210 0 0 0 -111 -305 -299 -307 -458 -373 -73 -525 -541 -613 -627 -568 -581 -597 -610 -645 -579 -555 -535 -518 -524 -552 -517 -466 -462 -467 -528 -572 -557
0 0 0 0 0 0 0 0 0 0 -206 -286 -335 -283 -553 0 -279 -323 -374 -477 -568 0 -554 -567 -576 -558 -572 -577 -597 -557 -599 -623 -581 -555 -556 -548 -534 -467 -440 -442 -464 -501 -529 -553
0 0 0 0 0 0 0 0 0 -173 -184 -272 -341 -364 -509 0 0 0 -561 0 -589 -562 -68 -603 -534 -564 -563 -550 -586 -615 -680 -610 -587 -564 -562 -535 -506 -431 -420 -446 -470 -498 -512 -532
0 0 0 0 0 0 0 0 0 0 -219 -333 -317 -274 -358 0 -158 0 0 0 -32 -534 -623 -285 -591 -589 -584 -554 -587 -664 -703 -681 -543 -534 -548 -516 -478 -441 -421 -462 -486 -499 -510 -517
0 0 0 0 0 0 0 0 -179 -158 -271 0 -295 -256 -238 -373 -472 -618 0 0 0 0 -468 -461 -595 -556 -570 -684 -693 -679 -708 -721 -610 -518 -517 -504 -492 -481 -464 -461 -467 -489 -518 -507
0 0 0 0 0 0 -18 -240 -220 -95 -530 -428 -211 -217 -297 -393 -471 -520 0 0 -257 -719 -728 -280 -612 -541 -597 -748 -690 -661 -683 -642 -603 -557 -530 -524 -515 -480 -471 -483 -506 -501 -492 -502
-70 0 0 0 0 0 0 0 0 0 0 -213 -183 -207 -304 -425 -472 -481 -482 -537 -623 -825 -846 -739 -614 -685 -812 -856 -659 -622 -580 -606 -619 -646 -605 -564 -541 -510 -473 -491 -501 -514 -505 -501
0 0 0 -7 0 0 0 0 0 -1 0 -257 -286 -290 -350 -430 -476 -463 -538 -551 -524 -430 -590 -946 -753 -836 -867 -920 -761 -593 -602 -722 -681 -651 -632 -613 -586 -555 -527 -506 -514 -494 -503 -524
-11 0 0 -5 0 0 -19 0 0 0 0 -171 -406 -410 -377 -522 -620 -523 -475 -500 -467 -380 -388 -386 -804 -832 -782 -828 -773 -666 -765 -780 -667 -658 -641 -677 -669 -687 -554 -558 -532 -542 -559 -547
-2 -1 0 0 0 0 0 0 0 0 0 0 -284 -406 -501 0 -517 -516 -585 -539 -440 -467 -543 -475 -396 -559 -800 -760 -761 -714 -773 -794 -641 -619 -628 -640 -623 -627 -665 -569 -547 0 -288 -842
Wind_Speed
1 4 6 10 7 5 2 1 6 4 2 1 3 2 16 19 14 14 16 15 16 16 13 7 9 10 11 11 11 10 8 7 4 2 3 2 2 1 2 3 3 4 3 4
2 7 9 6 7 5 4 4 7 5 5 6 6 8 9 21 24 24 22 19 18 16 11 8 11 13 13 14 12 10 9 7 5 3 3 3 2 3 2 2 2 3 2 4
13 10 6 6 4 4 4 7 5 8 2 4 2 7 6 12 12 17 19 20 18 21 18 13 13 15 14 13 13 13 10 9 6 6 3 2 3 2 2 0 2 3 4 2
6 6 7 5 7 8 5 8 5 6 1 4 4 6 4 6 19 22 20 20 19 19 18 15 16 17 17 15 13 13 11 9 7 7 4 4 3 3 3 3 2 3 3 2
10 7 9 11 15 7 10 5 9 7 5 5 2 3 6 4 7 16 21 22 22 21 21 20 18 19 19 17 14 12 12 10 8 7 7 5 3 2 1 1 4 3 2 2
6 2 5 8 7 9 8 4 3 3 3 1 17 6 17 7 11 15 19 22 24 23 21 20 19 18 17 16 15 13 14 13 9 9 8 8 7 5 3 3 4 4 2 2
3 5 3 3 2 2 4 7 2 3 1 10 7 6 18 10 14 15 26 25 25 23 21 20 21 19 19 19 18 15 15 15 12 10 8 8 8 7 7 5 4 3 1 1
7 11 9 3 11 9 8 11 8 8 5 3 3 7 12 10 7 11 20 25 22 22 21 23 23 21 20 21 19 19 16 15 14 11 11 7 8 5 5 5 4 3 3 3
7 8 6 8 7 12 6 6 9 5 1 3 5 9 12 4 5 8 16 19 20 20 22 22 20 20 20 19 21 20 18 16 15 14 10 8 7 7 6 7 5 3 3 3
4 3 7 9 5 7 10 7 5 3 7 5 5 5 7 5 7 6 14 17 19 20 20 20 19 20 18 19 19 19 19 19 16 15 12 10 10 7 7 6 7 6 4 4
2 4 7 1 6 12 1 3 3 5 7 9 4 8 9 13 8 14 18 21 23 21 23 23 22 21 20 19 19 18 17 18 15 14 13 11 9 9 8 7 7 6 5 6
3 4 5 14 5 5 9 11 10 7 7 3 3 10 6 11 8 13 16 15 15 17 22 24 23 22 21 21 19 19 17 17 16 15 13 12 9 9 9 10 9 6 7 6
6 4 5 3 6 6 3 4 4 4 4 8 6 8 4 6 6 10 13 14 12 12 16 16 20 22 22 21 20 19 18 18 16 14 13 12 10 11 13 13 11 7 7 7
4 3 5 5 5 4 5 2 3 5 4 4 8 10 9 9 8 6 9 10 12 15 19 21 20 23 22 21 20 20 19 17 16 15 14 14 13 14 13 12 10 7 7 7
6 2 2 8 12 5 7 7 5 7 7 7 7 12 11 12 12 11 9 10 11 10 18 23 23 24 24 22 20 18 19 18 17 16 15 15 13 12 11 10 11 8 7 7
6 4 5 5 4 4 9 9 9 7 2 5 7 8 8 7 4 6 10 10 11 13 18 23 19 18 19 20 20 18 18 18 17 17 17 15 12 11 12 12 11 8 7 7
3 3 5 6 6 8 2 2 4 3 2 3 3 5 7 6 9 12 12 13 17 16 16 20 22 24 22 21 20 20 19 18 18 17 17 15 13 13 13 12 10 11 10 6
3 1 1 5 6 5 6 4 5 1 5 5 6 9 10 14 16 14 12 14 9 12 18 20 20 20 19 18 19 17 16 18 18 17 16 15 14 14 13 11 13 12 8 10
8 4 1 0 4 7 2 6 6 4 3 9 10 15 15 9 3 9 6 3 7 8 12 15 18 18 18 18 18 17 15 16 16 17 17 16 15 15 14 14 14 12 9 10
4 3 4 2 1 5 1 19 14 6 4 12 13 16 16 7 5 10 4 5 7 9 8 10 15 13 16 16 15 17 16 16 17 17 17 15 15 16 15 15 14 12 9 11
3 2 6 4 3 7 10 23 15 5 4 15 11 12 13 7 5 17 14 3 2 3 9 11 14 16 18 15 16 17 16 18 20 17 16 16 16 16 16 14 11 10 10 10
1 3 5 2 2 5 18 7 8 10 12 7 7 8 12 11 12 13 9 7 8 8 5 12 15 15 14 14 17 17 17 20 15 15 15 15 15 13 12 14 11 10 11 11
2 2 3 1 3 4 8 8 11 8 11 6 6 6 10 11 12 15 13 13 12 9 4 5 10 13 10 13 16 18 16 12 12 13 15 15 14 13 13 12 12 9 10 10
5 5 3 6 2 15 5 13 17 17 17 14 7 8 7 9 14 13 13 13 13 13 9 5 5 7 8 10 15 13 9 9 12 13 13 11 12 12 11 10 9 10 11 11
2 7 9 5 8 14 6 15 19 22 21 14 10 9 10 11 14 13 11 13 12 11 13 12 7 3 7 7 6 6 7 10 12 12 11 11 10 11 11 11 11 12 14 13
1 2 3 3 10 5 10 15 20 20 20 19 12 14 12 11 10 12 11 12 11 12 12 12 11 8 7 3 3 3 6 10 12 11 9 11 10 9 9 10 10 0 4 10
Wind_Direction
242 112 196 224 182 191 209 272 271 272 137 67 339 109 186 180 175 182 189 186 188 195 207 176 174 175 169 168 163 175 166 193 157 132 121 94 217 260 249 216 218 204 169 98
60 210 220 220 159 174 199 243 260 291 227 156 194 221 211 184 191 188 185 188 190 191 187 174 165 168 174 172 174 177 181 179 185 152 146 151 176 218 178 163 245 249 192 129
204 218 194 193 207 185 187 194 228 223 323 301 139 268 170 190 198 200 198 191 189 186 182 177 173 173 174 178 177 185 185 178 183 180 126 94 73 47 70 248 261 245 229 146
212 234 188 185 222 162 235 212 236 239 216 255 117 281 209 203 207 197 192 193 193 194 190 173 172 182 179 185 184 185 183 177 186 177 157 156 168 167 209 189 217 248 232 220
224 188 177 211 227 161 234 190 197 227 220 319 228 284 264 141 218 204 199 192 194 193 189 183 178 182 184 176 183 187 183 185 180 176 177 168 178 202 135 227 249 242 256 234
220 260 171 203 225 190 234 119 51 26 99 272 250 174 276 199 210 210 198 196 190 192 191 186 179 181 183 178 179 182 183 191 188 177 185 180 194 198 204 242 233 237 228 260
328 239 212 163 243 166 125 89 293 342 136 230 228 212 238 255 234 206 191 193 191 187 189 187 183 184 183 179 180 181 185 189 193 186 181 184 197 201 213 224 217 193 199 261
179 263 163 194 188 186 190 157 164 187 213 241 111 219 252 239 248 219 192 194 184 186 190 189 188 184 187 185 183 183 185 190 189 194 194 187 192 198 212 219 217 208 196 247
169 256 295 185 193 164 220 168 185 179 335 32 243 284 301 282 316 163 176 181 186 188 189 191 188 189 184 191 186 186 184 193 191 196 194 193 191 196 209 221 217 207 193 240
298 292 223 238 159 233 163 174 90 351 162 235 262 262 242 272 244 149 172 184 193 192 190 189 187 188 189 189 193 187 187 189 194 193 198 199 201 197 208 209 213 204 201 217
32 134 279 73 204 211 154 179 101 139 152 197 224 252 223 239 198 192 190 193 195 188 188 189 189 186 188 188 188 193 189 191 193 196 196 198 198 202 208 216 222 204 193 201
305 136 233 239 235 200 184 193 183 187 248 242 194 249 262 242 235 193 200 197 200 207 193 189 188 184 184 185 189 191 192 191 193 194 194 198 193 203 213 221 229 203 209 210
321 8 351 39 354 352 231 215 163 123 91 209 188 267 265 278 268 198 199 199 192 202 201 194 189 187 189 187 186 188 192 193 191 189 191 196 195 201 219 226 227 204 201 208
94 97 139 202 258 273 285 300 179 145 138 211 209 240 281 261 236 211 197 216 196 194 198 193 190 191 188 190 184 186 187 192 187 188 193 196 198 207 216 224 227 209 196 198
67 43 304 244 249 230 248 252 239 173 211 170 232 207 231 234 214 208 205 212 217 210 203 196 192 191 188 185 187 186 185 185 185 189 195 202 204 208 212 218 224 220 198 201
8 316 345 275 268 318 255 250 239 231 246 243 266 251 233 270 155 180 205 207 212 210 200 195 186 187 189 188 184 182 182 185 182 189 197 199 198 198 207 216 224 217 208 196
37 29 359 272 316 314 257 249 289 98 145 207 284 265 321 237 211 197 204 205 211 198 183 180 182 183 185 186 182 185 183 180 185 189 196 196 194 200 208 212 217 220 218 198
208 77 160 271 318 179 223 315 242 259 83 24 306 312 298 268 230 205 209 196 202 203 185 183 182 182 187 183 185 182 175 178 185 192 193 195 194 202 208 206 216 223 210 219
193 127 283 201 269 287 35 6 344 19 317 7 340 333 323 288 116 282 228 238 214 205 196 184 183 182 169 180 182 176 174 179 186 193 194 194 193 199 204 208 216 221 211 225
89 98 130 291 276 225 343 328 319 234 216 356 352 343 341 323 159 239 322 175 233 187 175 180 171 171 165 178 176 172 176 174 191 195 197 193 194 200 205 211 215 216 215 224
131 170 171 219 259 284 340 323 311 73 299 325 339 341 354 351 291 298 296 190 301 248 188 172 168 174 182 168 170 182 181 187 197 195 192 194 196 199 206 212 211 210 209 220
302 194 203 128 207 291 348 12 40 324 302 306 319 331 337 329 340 359 3 10 352 326 221 182 180 181 179 171 176 185 193 199 190 191 192 195 198 203 204 208 210 210 206 212
178 87 295 269 234 269 313 351 337 325 327 304 316 325 342 343 354 7 2 4 344 337 350 218 200 163 169 174 185 191 201 186 189 188 195 198 198 203 207 202 209 208 208 214
334 36 255 323 357 331 289 345 349 350 343 327 323 330 355 350 360 5 4 2 356 345 5 350 167 163 164 180 193 198 177 164 173 193 198 198 201 204 206 209 208 210 214 218
358 320 321 262 352 331 5 341 336 338 340 339 345 342 358 21 3 3 1 2 359 354 3 12 351 210 169 181 185 183 172 165 188 194 198 198 200 199 206 214 212 217 224 214
92 321 292 290 316 289 298 315 316 335 339 338 348 344 346 18 16 4 3 359 5 8 6 15 0 333 55 105 127 220 191 184 189 198 199 200 199 200 208 213 224 187 267 232